Hourly Data Report for May 31, 2017

ATIKOKAN (AUT)
ONTARIO

48°45'40.000" N
91°37'41.000" W
389.30 m
6020LPQ
71747
WCH

Download Data

Hourly Data (May 2017)
Hourly Data Report for May 31, 2017
TIME
LST
Temp Definition
°C
Dew Point Definition
°C
Rel Hum Definition
%
Precip. Amount Definition
mm

Wind Dir Definition
10's deg

Wind Spd Definition
km/h
Visibility Definition
km
Stn Press Definition
kPa
Hmdx Definition


Wind Chill Definition


Weather Definition


00:00 7.4 5.9 90 0.0 29 9   96.25     LegendNANA
01:00 7.5 5.8 89 0.0 30 8   96.26     LegendNANA
02:00 7.6 5.8 88 0.0 30 6   96.26     LegendNANA
03:00 7.6 5.7 87 0.0 30 8   96.26     LegendNANA
04:00 7.3 4.7 83 0.0 31 10   96.28     LegendNANA
05:00 6.5 3.2 80 0.0 31 10   96.35     LegendNANA
06:00 6.3 2.4 76 0.0 32 15   96.43     LegendNANA
07:00 6.4 2.6 77 0.0 31 10   96.51     LegendNANA
08:00 7.0 3.0 76 0.0 31 10   96.58     LegendNANA
09:00 7.7 2.7 71 0.0 34 9   96.66     LegendNANA
10:00 8.5 2.1 64 0.0 33 11   96.71     LegendNANA
11:00 11.6 3.2 56 0.0 34 11   96.70     LegendNANA
12:00 13.3 3.4 51 0.0 30 13   96.72     LegendNANA
13:00 14.6 2.3 43 0.0 35 16   96.71     LegendNANA
14:00 15.0 1.2 39 0.0 30 15   96.73     LegendNANA
15:00 16.1 2.3 39 0.0 31 15   96.74     LegendNANA
16:00 16.6 1.7 37 0.0 31 13   96.76     LegendNANA
17:00 16.6 1.6 36 0.0 30 15   96.78     LegendNANA
18:00 16.6 2.2 38 0.0 30 12   96.79     LegendNANA
19:00 15.9 2.1 39 0.0 31 10   96.81     LegendNANA
20:00 11.7 4.2 60 0.0 31 3   96.83     LegendNANA
21:00 8.1 4.6 78 0.0 0 1   96.85     LegendNANA
22:00 6.2 4.5 89 0.0   0   96.89     LegendNANA
23:00 5.1 4.0 92 0.0   0   96.91     LegendNANA

Notes on Data Quality.

Legend

  • E = Estimated
  • M = Missing
  • NA = Not Available*
  • [empty] = Indicates an unobserved value
Date modified: